Starlink 5038

operational
NORAD ID: 56472 Int'l Des: 2023-064 Owner: SPXS Country: US Constellation: starlink
LEOCIRCULAR

Starlink 5038について

説明を読み込み中...

リアルタイム位置

3D地球を読み込み中...

次回通過

高度履歴

Altitude vs Time

uPlot chart will show altitude changes over time

軌道要素

1 56472U 23064AA 26061.58327850 .00000945 00000-0 86974-4 0 9998
2 56472 70.0004 142.4272 0003221 267.8978 92.1812 14.98330672154673
Epoch: Mar 2, 2026 • Age: 30 hours

現在のステータス

高度 576.0 km
速度 7.57 km/s
衛星直下点 -9.79°S, 113.49°W
打ち上げ日 May 10, 2023
運用期間 2.8 years
タイプ internet

技術仕様

分類 Payload
質量 305.00 kg
乾燥質量 290.00 kg
総質量 305.00 kg
長さ 0.20 m
直径 2.80 m
スパン 9.00 m
形状 Box + pan
製造者 SPXS
バスタイプ Starlink
フェーズステータス In Orbit
所有者/国 SPXS/US

大規模コンステレーション

Loading constellations...